Вернуться в каталог

FENGYUN 1C DEB

АктивенPO
NORAD 30201·DEBRIS·🇨🇳 China

Запущен May 10, 1999 с Taiyuan Satellite Launch Center

Loading…

Ближайшие Пролёты (ближайшие 24 часа)

TLE

СвежийSource: Space-Track

Эпоха: Sep 14, 2026, 09:17 UTC

1 30201U 99025VJ  26257.38701778  .00000526  00000-0  25295-3 0  9993
2 30201  99.4364  55.7055 0028405 250.3298 109.4812 14.23432177 17375

Отслеживайте FENGYUN 1C DEB в реальном времени с AllMySat

Download on the App Store